Location: General Nathan Twining Observatory
(34.5931°N, 106.8201°W)
Time: 20:15:41
(UTC-06:00)

Daily predictions for brighter satellites

Satellite Brightness Start Highest point End
(mag) Time Altitude Azimuth Time Altitude Azimuth Time Altitude Azimuth
Cosmos 1544 Rocket 3.5 20:37:43 10° N 20:42:03 78° E 20:46:22 10° S
Cosmos 2369 Rocket 3.8 20:38:05 10° NW 20:43:11 35° WSW 20:48:16 10° SSW
CZ-3A R/B 2.6 20:38:54 10° SSW 20:45:50 30° SE 20:48:33 10° ENE
Cosmos 1943 Rocket 2.6 20:41:04 10° NNW 20:46:36 65° WSW 20:52:04 10° S
Cosmos 2315 Rocket 4.4 20:42:03 10° SSW 20:48:17 72° W 20:54:37 10° N
Cosmos 405 Rocket 2.9 20:45:25 10° S 20:49:02 50° E 20:52:45 10° NNE
Resurs 1-3 3.7 20:45:34 10° S 20:49:56 82° WSW 20:54:21 10° NNW
Aureole 1 Rocket 2.8 20:46:50 10° S 20:50:05 37° ESE 20:52:57 10° NE
Cosmos 2074 Rocket 4.5 20:45:15 10° N 20:51:08 42° E 20:57:01 10° SSE
Cosmos 1500 3.5 20:49:51 10° NNW 20:53:36 67° W 20:57:18 10° S
Cosmos 2184 Rocket 4.5 20:48:30 10° N 20:54:30 43° E 21:00:24 10° SSE
Tiangong 2 2.7 20:51:46 10° W 20:54:44 35° NNW 20:57:42 10° NE
Cosmos 1441 Rocket 4.0 20:54:30 10° SSE 20:57:50 31° E 21:01:09 10° NNE
Cosmos 923 Rocket 4.2 20:55:03 10° SSW 21:00:22 79° WNW 21:05:42 10° NNE
Meteor 1-19 Rocket 4.3 20:54:50 10° S 21:00:36 69° E 21:06:19 10° NNE
Resurs 01 Rocket 2.6 20:59:34 10° S 21:03:51 48° W 21:08:08 10° NNW
ERS-1 Rocket 4.2 21:01:27 12° ESE 21:05:02 26° ENE 21:09:09 10° NNE
Cosmos 1455 Rocket 3.5 21:02:39 10° NNW 21:06:57 62° W 21:11:13 10° S
Meteor 1-29 2.8 21:06:57 10° NNE 21:10:19 63° ESE 21:13:38 10° S
CZ-4B DEB 4.4 21:09:11 10° SSE 21:12:41 85° E 21:16:15 10° N
CENTAUR R/B 3.2 21:09:10 10° NNW 21:17:17 90° WSW 21:24:52 14° SSE
Nadezhda 1 Rocket 4.1 21:13:17 10° S 21:19:32 65° E 21:25:52 10° NNE
COSMOS 2406 4.1 21:16:52 10° SW 21:22:28 54° WNW 21:28:05 10° NNE
CZ-4B DEB 2.5 21:20:52 20° SSE 21:22:46 75° ENE 21:25:45 10° N
ASTRO E2 3.5 21:19:15 10° W 21:22:56 36° SSW 21:24:51 22° SE
Cosmos 2082 Rocket 3.4 21:23:35 19° ESE 21:25:02 20° E 21:29:05 10° NE
Cosmos 1743 3.0 21:22:29 10° NNW 21:26:22 67° W 21:30:08 11° S
Cosmos 1346 4.5 21:24:52 10° SSW 21:27:26 35° W 21:30:02 10° N
ISS -1.1 21:27:02 10° W 21:29:45 23° NW 21:32:28 10° NNE
Cosmos 1238 Rocket 4.1 21:26:37 10° S 21:33:19 79° E 21:39:54 10° N
ASTEX 1 3.3 21:34:36 18° SSE 21:38:11 71° E 21:43:04 10° N
SAR-Lupe-4 4.1 21:35:32 16° S 21:38:13 57° W 21:41:46 10° NNW
Cosmos 2154 Rocket 4.3 21:32:30 10° N 21:38:41 52° E 21:42:32 23° SSE
SL-27 R/B 3.9 21:35:34 10° SW 21:39:02 41° WNW 21:42:31 10° N
Helios 1A 3.8 21:35:29 10° S 21:39:28 49° W 21:43:34 10° NNW
OAO 2 Rocket 3.2 21:35:51 10° W 21:40:48 87° N 21:44:04 22° E
H-2A R/B 3.5 21:40:27 17° E 21:41:56 20° ENE 21:45:28 10° NNE
YAOGAN 6 2.4 21:41:01 29° SSE 21:42:40 90° WNW 21:46:11 10° N
Aureole 3 Rocket 4.4 21:36:32 10° SSW 21:43:06 55° W 21:47:47 10° N
Cosmos 1939 Rocket 3.5 21:40:11 15° S 21:43:16 50° W 21:47:03 10° NNW
Cosmos 921 Rocket 4.3 21:44:45 10° N 21:48:30 26° ENE 21:49:22 24° E
Cosmos 1666 3.4 21:45:08 10° NNW 21:48:46 51° W 21:51:13 19° SSW
Cosmos 967 Rocket 4.4 21:44:14 10° SSW 21:50:29 83° ESE 21:56:47 10° NNE
Okean 1-7 Rocket 4.0 21:48:43 10° SSW 21:53:06 63° W 21:57:34 10° N
Cosmos 1892 Rocket 3.8 21:52:30 37° SE 21:53:49 50° E 21:58:05 10° NNE
Meteor 2-9 Rocket 4.3 21:51:40 10° NNW 21:57:11 73° W 22:01:06 21° S
Cosmos 1437 Rocket 2.7 21:56:15 10° N 22:00:05 64° E 22:00:44 53° SE
Cosmos 1833 Rocket 3.1 22:00:38 35° SE 22:02:01 41° ESE 22:07:15 10° NE
Cosmos 2056 Rocket 3.6 21:57:57 10° N 22:03:02 59° ENE 22:04:39 40° SE
PSLV R/B 3.5 22:02:11 10° WNW 22:05:15 51° NNE 22:05:22 51° NNE
DNEPR-1 R/B 4.3 22:01:08 10° NW 22:05:19 48° WSW 22:07:16 30° S
MetOp-A 4.0 22:04:47 35° SSE 22:07:07 81° ENE 22:12:30 10° N
Cosmos 1606 Rocket 3.4 22:05:11 10° N 22:09:30 76° E 22:10:24 54° SSE
Cosmos 2341 Rocket 4.0 22:05:17 10° N 22:11:39 71° E 22:14:23 36° SSE
Cosmos 405 4.2 22:10:07 10° NNW 22:13:26 38° W 22:14:29 30° SW
Cosmos 1515 3.7 22:15:55 58° SSW 22:16:34 76° W 22:20:22 10° N
Cosmos 1025 Rocket 4.4 22:12:56 10° SW 22:16:51 35° W 22:20:47 10° NNW
Intercosmos 24 4.2 22:13:20 10° NNW 22:16:54 52° W 22:17:39 43° SW
Cosmos 1066 Rocket 4.4 22:16:09 44° SE 22:17:09 50° E 22:22:31 10° NNE
COSMOS 2487 2.4 22:17:33 80° NNE 22:17:33 80° NNE 22:20:57 10° NNE
Cosmos 1726 Rocket 3.3 22:14:53 10° N 22:19:13 81° E 22:19:44 67° SSE
Cosmos 2218 Rocket 4.4 22:17:08 10° N 22:22:57 42° E 22:24:05 38° ESE
YAOGAN 11 4.1 22:29:45 59° SSW 22:30:20 68° WSW 22:34:39 10° NNW
Landsat 7 4.3 22:31:20 44° ENE 22:31:24 44° ENE 22:35:55 10° N
Tiangong 2 3.7 22:29:44 10° NW 22:32:02 18° N 22:33:11 15° NNE
SPOT 1/Viking Rocket 3.4 22:32:18 60° SE 22:33:08 74° ENE 22:38:17 10° N
Cosmos 839 Rocket 4.4 22:26:41 10° NNW 22:33:28 78° ENE 22:36:25 43° SE
Cosmos 2058 Rocket 2.9 22:29:34 10° N 22:34:00 86° E 22:34:08 83° SE
Cosmos 1452 Rocket 3.9 22:29:57 10° N 22:35:01 46° ENE 22:35:24 45° E
Cosmos 1980 Rocket 3.7 22:33:00 10° N 22:37:18 22° ENE 22:38:08 21° ENE
Cosmos 2181 Rocket 4.2 22:34:12 27° SSW 22:37:55 70° W 22:44:13 10° N
ARGOS 3.4 22:40:03 46° SSW 22:41:30 64° WSW 22:46:53 10° NNW
ERS-1 Rocket 4.4 22:41:27 22° SW 22:43:39 30° W 22:48:03 10° NW
Terra 2.5 22:46:50 42° ENE 22:46:50 42° ENE 22:50:57 10° N
SPOT 5 3.2 22:48:43 46° WSW 22:48:57 47° W 22:53:08 10° NNW
H-2A R/B 2.9 22:52:19 42° NE 22:52:19 42° NE 22:55:58 10° N
USA 267 4.3 22:49:32 10° ENE 22:52:59 28° E 22:52:59 28° E
Cosmos 468 4.4 22:57:42 78° SW 22:58:02 84° WNW 23:03:20 10° NNE
Cosmos 1626 Rocket 4.1 23:03:25 54° NNW 23:03:25 54° NNW 23:06:51 10° N
Cosmos 864 Rocket 4.3 22:58:25 10° N 23:04:43 80° E 23:05:17 73° SE
Meteor 2-21 4.2 23:02:28 10° N 23:08:32 89° WSW 23:09:00 77° S
Cosmos 2082 Rocket 3.1 23:05:18 22° SW 23:08:42 45° WNW 23:14:08 10° N
Meteor 2-21 Rocket 4.2 23:06:35 10° N 23:12:38 79° E 23:12:47 79° ESE
Cosmos 2278 4.2 23:07:21 10° NNW 23:12:50 50° WSW 23:13:11 49° WSW
SL-19 R/B 4.1 23:11:16 10° NNE 23:16:21 78° NW 23:16:21 78° NW
Meteor 1-22 Rocket 4.1 23:11:57 10° N 23:16:58 79° NNW 23:16:58 79° NNW
H-2A R/B 2.9 23:21:05 39° W 23:21:05 39° W 23:25:42 10° NNW
USA 229 DEB 4.2 23:18:22 10° NNW 23:25:20 51° NE 23:26:31 47° E
Cosmos 158 Rocket 4.2 23:25:51 68° NNW 23:25:51 68° NNW 23:30:43 10° NNE
USA 229 4.2 23:18:29 10° NNW 23:25:26 51° NE 23:26:37 47° E
Cosmos 2366 rocket 4.1 23:21:44 10° NNW 23:27:46 62° W 23:28:15 60° WSW
Cosmos 1697 Rocket 2.9 23:27:41 10° NNW 23:32:41 65° WNW 23:32:41 65° WNW
CZ-4B R/B 3.9 23:32:32 10° N 23:36:44 60° N 23:36:44 60° N
SL-16 R/B 3.7 23:35:01 10° N 23:39:28 25° ENE 23:39:28 25° ENE
